Regional Weather Roundup
Issued by NWS Sterling, VA

Home | Current Version | Previous Version | Text Only | Print | Product List | Glossary Off
Versions: 1 2 3 4 5 6 7 8 9 10 11 12 13 14 15 16 17 18 19 20 21 22 23 24 25 26 27 28 29 30 31 32 33 34 35 36 37 38 39 40 41 42 43 44 45 46 47 48 49 50

000
ASUS41 KLWX 240110
RWRLWX

REGIONAL WEATHER ROUNDUP
NATIONAL WEATHER SERVICE BALTIMORE MD/WASHINGTON DC
900 PM EDT SAT MAY 23 2015

Note: "FAIR" indicates few or no clouds below 12,000 feet
with no significant weather and/or obstructions to visibility.
 TC=TEMPERATURE CELSIUS

 * =Non NWS site. Station does not report precipitation (e.g. rain,
    snow, etc.), thunder, or fog.

DCZ001-MDZ009-015-VAZ040>042-051-053>054-240200-
WASHINGTON METRO

CITY           SKY/WX    TMP DP  RH WIND       PRES   REMARKS
WASHINGTON NAT PTCLDY    68  41  37 S7        30.37S
DULLES         PTCLDY    63  41  44 SE3       30.36S
ANDREWS AFB    CLEAR     59  44  58 SE7       30.36S
FT BELVOIR     CLEAR     57  48  72 SE2       30.37S
QUANTICO       CLEAR     67  48  50 S13       30.38R
COLLEGE PARK*  CLEAR     63  43  48 CALM      30.37R
LEESBURG*      CLEAR     64  46  52 S5        30.36F
MANASSAS*      CLEAR     72  39  30 CALM      30.36F
GAITHERSBURG*  CLEAR     59  37  44 SE5       30.40S

$$

MDZ006>007-011-014-240200-
BALTIMORE METRO

CITY           SKY/WX    TMP DP  RH WIND       PRES   REMARKS
BWI AIRPORT    PTCLDY    61  40  45 S3        30.36S
MD SCIENCE CTR   N/A     65  38  36 MISG      30.37S
MARTIN STATE   CLEAR     63  46  55 CALM      30.38S
ANNAPOLIS      CLEAR     62  44  51 S3        30.37S
FORT MEADE*    CLEAR     54  45  71 CALM      30.39S

$$

MDZ012-015-019>023-240200-
MARYLAND EASTERN SHORE

CITY           SKY/WX    TMP DP  RH WIND       PRES   REMARKS
OCEAN CITY     CLEAR     57  47  69 S7        30.41S
SALISBURY      CLEAR     54  48  80 E5        30.40S
BAY BRIDGE AP*   N/A    N/A N/A N/A S3        30.38S
CAMBRIDGE*     CLEAR     59  45  58 CALM      30.39R

$$

MDZ017>025-240200-
SOUTHERN MARYLAND

CITY           SKY/WX    TMP DP  RH WIND       PRES   REMARKS
PATUXENT RIVER CLEAR     58  42  55 S6        30.39R
ST INIGOES     CLEAR     60  43  53 SE5       30.39S
LEONARDTOWN*   CLEAR     59  41  51 S5        30.41S

$$

MDZ003>005-240200-
NORTH CENTRAL MARYLAND

CITY           SKY/WX    TMP DP  RH WIND       PRES   REMARKS
FREDERICK*     CLEAR     59  45  58 SE3       30.38S
HAGERSTOWN APT CLEAR     66  38  35 S6        30.34S
WESTMINSTER*   CLEAR     64  34  32 S3        30.36S

$$

MDZ501>502-240200-
WESTERN MARYLAND

CITY           SKY/WX    TMP DP  RH WIND       PRES   REMARKS
OAKLAND*       CLEAR     55  34  44 CALM      30.40S
CUMBERLAND*    CLEAR     66  36  32 CALM      30.37S

$$

VAZ025>031-240200-
SHENANDOAH VALLEY

CITY           SKY/WX    TMP DP  RH WIND       PRES   REMARKS
WINCHESTER*    CLEAR     61  41  48 S3        30.35S
FRONT ROYAL*   FAIR      63  46  55 CALM      30.34S
LURAY*         FAIR      63  52  67 CALM      30.35S
NEW MARKET*    FAIR      60  50  68 CALM      30.33S
STAUNTON*      CLEAR     65  47  53 CALM      30.37S
WAYNESBORO*    FAIR      62  49  62 CALM      30.36F

$$

WVZ021-048>050-054>055-240200-
EASTERN WEST VIRGINIA PANHANDLE

CITY           SKY/WX    TMP DP  RH WIND       PRES   REMARKS
MARTINSBURG    CLEAR     61  44  53 S5        30.35S
PETERSBURG*    CLEAR     58  46  64 NW5       30.35R

$$

VAZ036>039-050-240200-
CENTRAL FOOTHILLS

CITY           SKY/WX    TMP DP  RH WIND       PRES   REMARKS
CHARLOTTESVILL CLEAR     66  47  50 SE3       30.35F
CULPEPER*      CLEAR     56  47  71 CALM      30.37S
ORANGE*        PTCLDY    63  52  67 CALM      30.38S
GORDONSVILLE*  FAIR      61  51  70 CALM      30.35F
WARRENTON*     FAIR      61  49  64 CALM      30.36S

$$

VAZ055>057-240200-
NORTH AND CENTRAL PIEDMONT

CITY           SKY/WX    TMP DP  RH WIND       PRES   REMARKS
FREDERICKSBRG* CLEAR     65  51  61 CALM      30.36S
STAFFORD*      CLEAR     56  51  82 CALM      30.41S

$$

NCZ024-NYZ072-PAZ021-071-VAZ022-071-240200-
OTHER REGIONAL OBSERVATIONS

CITY           SKY/WX    TMP DP  RH WIND       PRES   REMARKS
NEW YORK CITY  CLEAR     60  40  47 VRB5      30.36S
PHILADELPHIA   PTCLDY    65  37  35 S7        30.37S
PITTSBURGH     PTCLDY    67  37  33 SW3       30.34R
ROANOKE        PTCLDY    66  49  54 SE8       30.37S
RICHMOND       PTCLDY    64  49  57 SE5       30.37S
RALEIGH        PTCLDY    66  51  58 CALM      30.37S

$$

ANZ530>537-240200-
MARINE OBSERVATIONS

STATION/POSITION TIME  TEMP    WIND        PRES
                       AIR SEA DIR/SP/G
                 (UTC) (F)     (DEG/KT/KT) (MB)
THOMAS PT LIGHT  0100   66 65  170/ 10/ 11 1029.1S
BALT KEY BRIDGE  0000   65     150/ 11/ 12 1028.0F
LEWISETTA        0000   64 70              1028.9S
SOLOMONS ISLAND  0000      69                N/A
PINEY POINT      0000          170/ 12/ 13   N/A

$$




USA.gov is the U.S. government's official web portal to all federal, state and local government web resources and services.